CW9119 Weather Reports


Display with metric or nautical units.
time (UTC)temp
F
wind
direction
speed
MPH
gust
MPH
rain 1hr
in
rain 24hr
in
rain mn
in
humidity
%
barometer
mb
20180922051111 42 286 0.0 0.0 0.00 0.32 0.00 95 1017.9
20180922043110 43 286 0.0 0.0 0.00 0.32 0.00 94 1017.4
20180922041110 43 286 0.0 0.0 0.00 0.32 0.00 94 1017.4
20180922034110 45 286 0.0 0.0 0.00 0.32 0.00 94 1017.3
20180922025110 46 286 0.0 1.0 0.00 0.32 0.00 94 1017.0
20180922024110 47 286 0.0 0.0 0.00 0.32 0.00 94 1016.9
20180922022110 47 286 0.0 0.0 0.00 0.32 0.00 93 1016.7
20180922015110 48 286 0.0 0.0 0.00 0.32 0.00 93 1016.6
20180922012111 49 286 0.0 1.0 0.00 0.32 0.00 93 1015.9
20180922011111 49 262 0.0 2.0 0.00 0.32 0.00 93 1015.9
20180922004111 49 108 0.0 5.0 0.00 0.32 0.00 93 1015.6
20180922003111 48 304 0.0 2.0 0.00 0.32 0.00 92 1015.3
20180922002111 48 303 0.0 0.0 0.00 0.32 0.00 92 1015.2
20180921235111 48 286 1.0 6.0 0.00 0.32 0.00 91 1014.4
20180921234111 49 286 2.0 8.0 0.00 0.32 0.00 92 1014.5
20180921233111 49 20 2.0 11.0 0.00 0.32 0.00 92 1014.5
20180921231111 49 286 2.0 11.0 0.00 0.32 0.00 93 1014.1
20180921230111 49 292 1.0 8.0 0.00 0.32 0.00 93 1013.8
20180921225111 49 307 0.0 2.0 0.00 0.32 0.00 93 1013.7
20180921222111 49 308 0.0 0.0 0.00 0.32 0.00 92 1013.5
20180921220111 49 9 0.0 2.0 0.00 0.32 0.00 92 1013.1
20180921213111 49 350 1.0 8.0 0.01 0.32 0.32 93 1012.1
20180921210111 50 46 0.0 1.0 0.04 0.32 0.32 92 1012.2
20180921204111 50 5 0.0 5.0 0.06 0.31 0.31 92 1011.7
20180921201111 50 350 1.0 7.0 0.09 0.30 0.30 90 1011.2
20180921193111 58 41 0.0 4.0 0.25 0.25 0.25 92 1010.3
20180921183111 65 36 9.0 31.0 0.00 0.00 0.00 69 1010.1
20180921182111 69 342 12.0 26.0 0.00 0.00 0.00 59 1009.1
20180921174111 71 186 0.0 1.0 0.00 0.00 0.00 49 1007.2
20180921172111 71 151 0.0 5.0 0.00 0.00 0.00 49 1007.3
20180921171111 72 186 0.0 5.0 0.00 0.00 0.00 48 1007.3
20180921163111 71 169 0.0 5.0 0.00 0.00 0.00 48 1007.5
20180921161111 73 169 0.0 1.0 0.00 0.00 0.00 46 1007.7
20180921155111 74 146 0.0 1.0 0.00 0.00 0.00 43 1008.0
20180921154111 75 170 1.0 7.0 0.00 0.00 0.00 40 1008.2
20180921152111 76 168 1.0 7.0 0.00 0.00 0.00 46 1008.4
20180921142112 77 180 4.0 12.0 0.00 0.00 0.00 41 1008.9
20180921134111 77 221 2.0 8.0 0.00 0.00 0.00 47 1009.2
20180921132111 75 166 2.0 16.0 0.00 0.00 0.00 51 1009.8
20180921130111 76 63 1.0 6.0 0.00 0.00 0.00 54 1010.0
20180921123111 77 183 4.0 13.0 0.00 0.00 0.00 51 1010.4
20180921110111 73 141 5.0 12.0 0.00 0.00 0.00 59 1011.3
20180921105111 73 144 6.0 12.0 0.00 0.00 0.00 59 1011.4
20180921102111 73 207 2.0 14.0 0.00 0.00 0.00 60 1011.9
20180921100111 72 198 2.0 8.0 0.00 0.00 0.00 63 1012.2
20180921095113 72 173 5.0 16.0 0.00 0.00 0.00 62 1012.3
20180921083111 69 142 3.0 10.0 0.00 0.00 0.00 69 1013.4
20180921082111 68 167 5.0 12.0 0.00 0.00 0.00 70 1013.5
20180921075111 67 76 4.0 11.0 0.00 0.00 0.00 74 1013.9
20180921074111 67 161 4.0 11.0 0.00 0.00 0.00 74 1013.9
20180921073111 66 174 2.0 10.0 0.00 0.00 0.00 75 1014.0
20180921071111 65 164 4.0 10.0 0.00 0.00 0.00 77 1013.9
20180921064111 63 171 3.0 10.0 0.00 0.00 0.00 81 1014.0